| time (UTC) | temp F | wind direction | speed MPH | gust MPH | rain 1hr in | rain 24hr in | rain mn in | humidity % | barometer mb |
| 20260507040533 | 57 | 360 | 3.0 | 5.0 | 0.00 | 0.00 | 0.00 | 85 | 1020.6 |
| 20260507035032 | 57 | 360 | 2.0 | 5.0 | 0.00 | 0.00 | 0.00 | 84 | 1020.5 |
| 20260507033531 | 57 | 360 | 1.0 | 6.0 | 0.00 | 0.00 | 0.00 | 83 | 1020.4 |
| 20260507032030 | 57 | 360 | 3.0 | 5.0 | 0.00 | 0.00 | 0.00 | 83 | 1020.3 |
| 20260507030529 | 58 | 360 | 4.0 | 5.0 | 0.00 | 0.00 | 0.00 | 83 | 1020.2 |
| 20260507025028 | 58 | 360 | 2.0 | 6.0 | 0.00 | 0.00 | 0.00 | 82 | 1020.1 |
| 20260507023527 | 58 | 360 | 1.0 | 4.0 | 0.00 | 0.00 | 0.00 | 81 | 1020.1 |
| 20260507022026 | 58 | 360 | 3.0 | 5.0 | 0.00 | 0.00 | 0.00 | 81 | 1020.0 |
| 20260507020525 | 59 | 360 | 3.0 | 6.0 | 0.00 | 0.00 | 0.00 | 80 | 1020.0 |
| 20260507015023 | 59 | 360 | 2.0 | 9.0 | 0.00 | 0.00 | 0.00 | 80 | 1020.2 |
| 20260507013523 | 60 | 360 | 3.0 | 6.0 | 0.00 | 0.00 | 0.00 | 79 | 1020.3 |
| 20260507012022 | 60 | 360 | 1.0 | 5.0 | 0.00 | 0.00 | 0.00 | 79 | 1020.2 |
| 20260507010520 | 60 | 360 | 2.0 | 5.0 | 0.00 | 0.00 | 0.00 | 78 | 1020.2 |
| 20260507005019 | 60 | 360 | 2.0 | 6.0 | 0.00 | 0.00 | 0.00 | 78 | 1020.1 |
| 20260507003518 | 61 | 360 | 3.0 | 9.0 | 0.00 | 0.00 | 0.00 | 77 | 1020.1 |
| 20260506235015 | 62 | 360 | 2.0 | 9.0 | 0.00 | 0.00 | 0.00 | 75 | 1020.1 |
| 20260506232013 | 63 | 360 | 2.0 | 10.0 | 0.00 | 0.00 | 0.00 | 74 | 1020.1 |
| 20260506230512 | 64 | 31 | 4.0 | 6.0 | 0.00 | 0.00 | 0.00 | 73 | 1020.2 |
| 20260506225011 | 64 | 78 | 3.0 | 9.0 | 0.00 | 0.00 | 0.00 | 72 | 1020.4 |
| 20260506223510 | 65 | 5 | 4.0 | 6.0 | 0.00 | 0.00 | 0.00 | 71 | 1020.5 |
| 20260506222009 | 66 | 149 | 3.0 | 9.0 | 0.00 | 0.00 | 0.00 | 70 | 1020.6 |
| 20260506220508 | 67 | 44 | 5.0 | 7.0 | 0.00 | 0.00 | 0.00 | 69 | 1020.7 |
| 20260506213506 | 68 | 13 | 8.0 | 10.0 | 0.00 | 0.00 | 0.00 | 68 | 1020.9 |
| 20260506212005 | 68 | 113 | 1.0 | 10.0 | 0.00 | 0.00 | 0.00 | 67 | 1021.0 |
| 20260506210504 | 69 | 201 | 2.0 | 5.0 | 0.00 | 0.00 | 0.00 | 65 | 1020.9 |
| 20260506205003 | 71 | 77 | 3.0 | 12.0 | 0.00 | 0.00 | 0.00 | 64 | 1021.0 |
| 20260506203503 | 71 | 146 | 4.0 | 8.0 | 0.00 | 0.00 | 0.00 | 66 | 1021.0 |
| 20260506200500 | 70 | 19 | 4.0 | 9.0 | 0.00 | 0.00 | 0.00 | 65 | 1021.1 |
| 20260506194959 | 69 | 59 | 4.0 | 8.0 | 0.00 | 0.00 | 0.00 | 66 | 1021.4 |
| 20260506191957 | 69 | 124 | 1.0 | 8.0 | 0.00 | 0.00 | 0.00 | 66 | 1021.4 |
| 20260506190456 | 68 | 195 | 2.0 | 6.0 | 0.00 | 0.00 | 0.00 | 69 | 1021.5 |
| 20260506184955 | 67 | 74 | 1.0 | 7.0 | 0.00 | 0.00 | 0.00 | 69 | 1021.5 |
| 20260506181953 | 65 | 318 | 8.0 | 10.0 | 0.00 | 0.00 | 0.00 | 73 | 1021.7 |
| 20260506180452 | 63 | 39 | 1.0 | 6.0 | 0.00 | 0.00 | 0.00 | 76 | 1021.7 |
| 20260506173450 | 61 | 360 | 3.0 | 6.0 | 0.00 | 0.00 | 0.00 | 80 | 1021.8 |
| 20260506171949 | 61 | 360 | 1.0 | 6.0 | 0.00 | 0.00 | 0.00 | 81 | 1021.8 |
| 20260506170447 | 60 | 360 | 1.0 | 6.0 | 0.00 | 0.00 | 0.00 | 81 | 1021.8 |
| 20260506164947 | 59 | 360 | 0.0 | 0.0 | 0.00 | 0.00 | 0.00 | 82 | 1021.7 |
| 20260506163446 | 59 | 360 | 0.0 | 0.0 | 0.00 | 0.00 | 0.00 | 83 | 1021.8 |
| 20260506161945 | 58 | 360 | 0.0 | 0.0 | 0.00 | 0.00 | 0.00 | 84 | 1021.8 |
| 20260506160443 | 58 | 360 | 0.0 | 0.0 | 0.00 | 0.00 | 0.00 | 85 | 1021.8 |
| 20260506151940 | 58 | 360 | 0.0 | 0.0 | 0.00 | 0.00 | 0.00 | 87 | 1021.6 |
| 20260506150440 | 57 | 360 | 0.0 | 0.0 | 0.00 | 0.00 | 0.00 | 87 | 1021.6 |
| 20260506144938 | 57 | 360 | 0.0 | 0.0 | 0.00 | 0.00 | 0.00 | 87 | 1021.5 |
| 20260506141936 | 56 | 360 | 0.0 | 0.0 | 0.00 | 0.00 | 0.00 | 88 | 1021.4 |
| 20260506140435 | 56 | 360 | 0.0 | 0.0 | 0.00 | 0.00 | 0.00 | 88 | 1021.1 |
| 20260506133433 | 56 | 360 | 0.0 | 0.0 | 0.00 | 0.00 | 0.00 | 88 | 1020.9 |
| 20260506131932 | 56 | 360 | 0.0 | 0.0 | 0.00 | 0.00 | 0.00 | 88 | 1020.7 |
| 20260506130431 | 56 | 360 | 0.0 | 0.0 | 0.00 | 0.00 | 0.00 | 87 | 1020.6 |
| 20260506123429 | 56 | 360 | 0.0 | 0.0 | 0.00 | 0.00 | 0.00 | 87 | 1020.5 |
| 20260506121928 | 56 | 360 | 0.0 | 0.0 | 0.00 | 0.00 | 0.00 | 87 | 1020.3 |
| 20260506114926 | 56 | 360 | 0.0 | 0.0 | 0.00 | 0.00 | 0.00 | 87 | 1020.1 |
| 20260506113425 | 56 | 360 | 0.0 | 0.0 | 0.00 | 0.00 | 0.00 | 87 | 1020.2 |
| 20260506111924 | 56 | 360 | 0.0 | 0.0 | 0.00 | 0.00 | 0.00 | 87 | 1020.1 |
| 20260506104922 | 56 | 360 | 0.0 | 0.0 | 0.00 | 0.00 | 0.00 | 86 | 1019.9 |
| 20260506103421 | 56 | 360 | 0.0 | 0.0 | 0.00 | 0.00 | 0.00 | 86 | 1019.9 |
| 20260506101920 | 56 | 360 | 0.0 | 0.0 | 0.00 | 0.00 | 0.00 | 86 | 1019.9 |
| 20260506100419 | 57 | 360 | 0.0 | 0.0 | 0.00 | 0.00 | 0.00 | 86 | 1019.9 |
| 20260506094918 | 57 | 360 | 0.0 | 0.0 | 0.00 | 0.00 | 0.00 | 86 | 1019.9 |
| 20260506093417 | 57 | 360 | 0.0 | 0.0 | 0.00 | 0.00 | 0.00 | 86 | 1019.8 |
| 20260506090415 | 57 | 360 | 0.0 | 0.0 | 0.00 | 0.00 | 0.00 | 86 | 1019.8 |
| 20260506084914 | 58 | 360 | 0.0 | 0.0 | 0.00 | 0.00 | 0.00 | 87 | 1019.8 |
| 20260506083412 | 58 | 360 | 0.0 | 0.0 | 0.00 | 0.00 | 0.00 | 87 | 1019.9 |
| 20260506081911 | 58 | 360 | 0.0 | 0.0 | 0.00 | 0.00 | 0.00 | 87 | 1020.0 |
| 20260506080411 | 58 | 360 | 0.0 | 0.0 | 0.00 | 0.00 | 0.00 | 87 | 1019.9 |
| 20260506073409 | 58 | 360 | 0.0 | 0.0 | 0.00 | 0.00 | 0.00 | 87 | 1019.7 |
| 20260506071907 | 58 | 360 | 0.0 | 0.0 | 0.00 | 0.00 | 0.00 | 86 | 1019.5 |
| 20260506070407 | 58 | 360 | 0.0 | 0.0 | 0.00 | 0.00 | 0.00 | 86 | 1019.4 |
| 20260506061903 | 58 | 360 | 0.0 | 0.0 | 0.00 | 0.00 | 0.09 | 86 | 1019.3 |
| 20260506060402 | 58 | 360 | 0.0 | 0.0 | 0.00 | 0.00 | 0.09 | 86 | 1019.2 |
| 20260506050358 | 58 | 360 | 0.0 | 0.0 | 0.00 | 0.00 | 0.09 | 85 | 1018.9 |
| 20260506044857 | 58 | 360 | 0.0 | 0.0 | 0.00 | 0.00 | 0.09 | 85 | 1018.8 |
| 20260506043356 | 58 | 360 | 0.0 | 0.0 | 0.00 | 0.00 | 0.09 | 84 | 1018.7 |
| 20260506041855 | 58 | 360 | 0.0 | 0.0 | 0.00 | 0.00 | 0.09 | 84 | 1018.4 |